| time (UTC) | temp F | wind direction | speed knots | gust knots | rain 1hr in | rain 24hr in | rain mn in | humidity % | barometer mb |
| 20260509064816 | 75 | 41 | 5.2 | 8.7 | 0.00 | 1.77 | 1.76 | 84 | 1013.6 |
| 20260509064316 | 75 | 29 | 5.2 | 8.7 | 0.00 | 1.77 | 1.76 | 84 | 1013.6 |
| 20260509063816 | 75 | 41 | 3.5 | 7.0 | 0.00 | 1.77 | 1.76 | 85 | 1013.7 |
| 20260509063317 | 75 | 38 | 5.2 | 10.4 | 0.00 | 1.77 | 1.76 | 84 | 1013.8 |
| 20260509062815 | 75 | 48 | 4.3 | 10.4 | 0.00 | 1.77 | 1.76 | 84 | 1013.9 |
| 20260509062317 | 75 | 50 | 6.1 | 10.4 | 0.00 | 1.77 | 1.76 | 84 | 1013.9 |
| 20260509061815 | 75 | 39 | 4.3 | 11.3 | 0.00 | 1.77 | 1.76 | 84 | 1014.0 |
| 20260509061316 | 76 | 48 | 5.2 | 11.3 | 0.00 | 1.77 | 1.76 | 83 | 1014.1 |
| 20260509060316 | 76 | 80 | 5.2 | 10.4 | 0.00 | 1.77 | 1.76 | 83 | 1014.2 |
| 20260509055316 | 75 | 97 | 4.3 | 10.4 | 0.00 | 1.77 | 1.76 | 84 | 1014.2 |
| 20260509054817 | 75 | 30 | 4.3 | 10.4 | 0.00 | 1.77 | 1.76 | 85 | 1014.2 |
| 20260509054316 | 75 | 43 | 2.6 | 7.8 | 0.00 | 1.77 | 1.76 | 86 | 1014.2 |
| 20260509053315 | 74 | 53 | 4.3 | 10.4 | 0.00 | 1.77 | 1.76 | 85 | 1014.6 |
| 20260509052816 | 74 | 49 | 4.3 | 8.7 | 0.00 | 1.77 | 1.76 | 86 | 1014.6 |
| 20260509052316 | 74 | 57 | 4.3 | 10.4 | 0.00 | 1.77 | 1.76 | 86 | 1014.7 |
| 20260509051816 | 74 | 59 | 5.2 | 10.4 | 0.00 | 1.77 | 1.76 | 85 | 1014.8 |
| 20260509051316 | 74 | 52 | 4.3 | 7.8 | 0.00 | 1.77 | 1.76 | 86 | 1014.9 |
| 20260509050816 | 75 | 46 | 5.2 | 10.4 | 0.00 | 1.77 | 1.76 | 85 | 1015.0 |
| 20260509050316 | 74 | 55 | 4.3 | 7.8 | 0.00 | 1.77 | 1.76 | 85 | 1014.9 |
| 20260509045816 | 74 | 22 | 4.3 | 8.7 | 0.00 | 1.77 | 1.76 | 86 | 1014.9 |
| 20260509045316 | 74 | 27 | 5.2 | 11.3 | 0.00 | 1.77 | 1.76 | 86 | 1015.0 |
| 20260509044816 | 75 | 44 | 7.0 | 11.3 | 0.00 | 1.77 | 1.76 | 85 | 1015.0 |
| 20260509044316 | 75 | 40 | 4.3 | 10.4 | 0.00 | 1.77 | 1.76 | 86 | 1015.1 |
| 20260509043316 | 75 | 24 | 4.3 | 10.4 | 0.00 | 1.77 | 1.76 | 86 | 1015.1 |
| 20260509042816 | 74 | 55 | 4.3 | 7.8 | 0.00 | 1.77 | 1.76 | 86 | 1015.2 |
| 20260509041816 | 74 | 45 | 3.5 | 7.0 | 0.00 | 1.77 | 1.76 | 86 | 1015.4 |
| 20260509041315 | 74 | 43 | 5.2 | 10.4 | 0.00 | 1.77 | 1.76 | 86 | 1015.5 |
| 20260509040817 | 75 | 64 | 4.3 | 7.8 | 0.00 | 1.77 | 1.76 | 86 | 1015.5 |
| 20260509040315 | 75 | 5 | 3.5 | 8.7 | 0.00 | 1.77 | 1.76 | 86 | 1015.5 |
| 20260509035818 | 75 | 13 | 6.1 | 11.3 | 0.00 | 1.77 | 1.76 | 86 | 1015.3 |
| 20260509035315 | 75 | 41 | 5.2 | 13.9 | 0.00 | 1.77 | 1.76 | 86 | 1015.4 |
| 20260509034817 | 75 | 45 | 5.2 | 10.4 | 0.00 | 1.77 | 1.76 | 86 | 1015.4 |
| 20260509034315 | 75 | 51 | 5.2 | 11.3 | 0.00 | 1.77 | 1.76 | 86 | 1015.4 |
| 20260509033816 | 75 | 32 | 5.2 | 12.2 | 0.00 | 1.77 | 1.76 | 86 | 1015.4 |
| 20260509032815 | 75 | 34 | 3.5 | 8.7 | 0.00 | 1.77 | 1.76 | 87 | 1015.5 |
| 20260509032316 | 75 | 38 | 6.1 | 10.4 | 0.00 | 1.77 | 1.76 | 86 | 1015.5 |
| 20260509031816 | 75 | 36 | 5.2 | 11.3 | 0.00 | 1.77 | 1.76 | 86 | 1015.5 |
| 20260509030816 | 75 | 30 | 4.3 | 10.4 | 0.00 | 1.77 | 1.76 | 86 | 1015.6 |
| 20260509025816 | 75 | 35 | 6.1 | 13.0 | 0.00 | 1.77 | 1.76 | 86 | 1015.6 |
| 20260509025317 | 75 | 51 | 6.1 | 12.2 | 0.00 | 1.77 | 1.76 | 86 | 1015.6 |
| 20260509024816 | 76 | 43 | 5.2 | 13.0 | 0.00 | 1.77 | 1.76 | 86 | 1015.6 |
| 20260509024315 | 76 | 46 | 5.2 | 12.2 | 0.00 | 1.77 | 1.76 | 85 | 1015.5 |
| 20260509023316 | 76 | 50 | 5.2 | 11.3 | 0.00 | 1.77 | 1.76 | 84 | 1015.5 |
| 20260509022816 | 76 | 35 | 6.1 | 14.8 | 0.00 | 1.77 | 1.76 | 85 | 1015.4 |
| 20260509022316 | 76 | 39 | 5.2 | 12.2 | 0.00 | 1.77 | 1.76 | 86 | 1015.4 |
| 20260509021816 | 75 | 37 | 6.1 | 14.8 | 0.00 | 1.77 | 1.76 | 86 | 1015.6 |
| 20260509021316 | 75 | 39 | 7.0 | 14.8 | 0.00 | 1.77 | 1.76 | 86 | 1015.5 |
| 20260509020817 | 75 | 34 | 6.1 | 12.2 | 0.00 | 1.77 | 1.76 | 87 | 1015.6 |
| 20260509020315 | 74 | 34 | 4.3 | 13.0 | 0.00 | 1.77 | 1.76 | 87 | 1015.7 |
| 20260509015815 | 74 | 29 | 7.0 | 15.6 | 0.00 | 1.77 | 1.76 | 88 | 1015.7 |
| 20260509015317 | 74 | 28 | 7.8 | 13.9 | 0.00 | 1.77 | 1.76 | 87 | 1015.8 |
| 20260509014816 | 74 | 37 | 6.1 | 13.9 | 0.00 | 1.77 | 1.76 | 88 | 1015.8 |
| 20260509014315 | 75 | 45 | 6.1 | 12.2 | 0.00 | 1.77 | 1.76 | 87 | 1015.8 |
| 20260509013815 | 75 | 43 | 6.1 | 13.0 | 0.00 | 1.77 | 1.76 | 88 | 1015.7 |
| 20260509013315 | 74 | 44 | 4.3 | 13.0 | 0.00 | 1.77 | 1.76 | 88 | 1015.7 |
| 20260509012816 | 74 | 29 | 6.1 | 13.9 | 0.00 | 1.77 | 1.76 | 87 | 1015.7 |
| 20260509012315 | 74 | 26 | 5.2 | 15.6 | 0.00 | 1.77 | 1.76 | 88 | 1015.6 |
| 20260509011816 | 74 | 44 | 6.1 | 12.2 | 0.00 | 1.77 | 1.76 | 89 | 1015.5 |
| 20260509011316 | 74 | 39 | 6.1 | 13.9 | 0.00 | 1.77 | 1.76 | 89 | 1015.6 |
| 20260509010815 | 74 | 50 | 6.1 | 13.9 | 0.00 | 1.77 | 1.76 | 88 | 1015.6 |
| 20260509005815 | 74 | 56 | 6.1 | 12.2 | 0.01 | 1.77 | 1.76 | 89 | 1015.5 |
| 20260509005316 | 74 | 77 | 4.3 | 13.9 | 0.01 | 1.77 | 1.76 | 90 | 1015.4 |
| 20260509004815 | 74 | 40 | 6.1 | 13.9 | 0.01 | 1.77 | 1.76 | 90 | 1015.3 |
| 20260509004316 | 74 | 55 | 5.2 | 13.9 | 0.01 | 1.77 | 1.76 | 90 | 1015.2 |
| 20260509003816 | 74 | 58 | 6.1 | 13.0 | 0.01 | 1.77 | 1.76 | 91 | 1015.0 |
| 20260509003315 | 73 | 45 | 4.3 | 10.4 | 0.01 | 1.77 | 1.76 | 91 | 1015.0 |
| 20260509002815 | 73 | 54 | 5.2 | 11.3 | 0.02 | 1.77 | 1.76 | 91 | 1014.9 |
| 20260509002315 | 73 | 54 | 5.2 | 10.4 | 0.02 | 1.77 | 1.76 | 91 | 1014.8 |
| 20260509001815 | 73 | 41 | 6.1 | 12.2 | 0.02 | 1.77 | 1.76 | 91 | 1014.6 |
| 20260509001315 | 73 | 78 | 6.1 | 12.2 | 0.03 | 1.77 | 1.76 | 91 | 1014.5 |
| 20260509000816 | 73 | 62 | 7.0 | 13.9 | 0.03 | 1.77 | 1.76 | 92 | 1014.5 |
| 20260509000315 | 73 | 49 | 8.7 | 13.0 | 0.03 | 1.76 | 1.75 | 92 | 1014.4 |
| 20260508235816 | 73 | 45 | 6.1 | 11.3 | 0.03 | 1.76 | 1.75 | 92 | 1014.5 |
| 20260508235315 | 73 | 56 | 5.2 | 13.9 | 0.03 | 1.76 | 1.75 | 92 | 1014.5 |
| 20260508234815 | 73 | 44 | 6.1 | 12.2 | 0.03 | 1.76 | 1.75 | 92 | 1014.5 |
| 20260508234315 | 73 | 48 | 6.1 | 12.2 | 0.04 | 1.76 | 1.75 | 92 | 1014.5 |
| 20260508233816 | 73 | 48 | 6.1 | 10.4 | 0.04 | 1.76 | 1.75 | 92 | 1014.6 |
| 20260508233315 | 73 | 32 | 5.2 | 13.9 | 0.04 | 1.76 | 1.75 | 92 | 1014.6 |
| 20260508232315 | 73 | 48 | 3.5 | 8.7 | 0.05 | 1.75 | 1.74 | 92 | 1014.5 |
| 20260508231815 | 73 | 48 | 6.1 | 13.0 | 0.06 | 1.75 | 1.74 | 92 | 1014.4 |
| 20260508231315 | 73 | 41 | 5.2 | 11.3 | 0.05 | 1.74 | 1.73 | 92 | 1014.4 |
| 20260508230815 | 73 | 10 | 4.3 | 12.2 | 0.05 | 1.74 | 1.73 | 93 | 1014.3 |
| 20260508230315 | 73 | 144 | 4.3 | 12.2 | 0.05 | 1.73 | 1.72 | 92 | 1014.1 |
| 20260508225815 | 73 | 34 | 4.3 | 13.9 | 0.05 | 1.73 | 1.72 | 93 | 1014.1 |
| 20260508224815 | 73 | 310 | 4.3 | 13.0 | 0.07 | 1.73 | 1.72 | 93 | 1013.9 |
| 20260508223815 | 73 | 54 | 3.5 | 11.3 | 0.06 | 1.72 | 1.71 | 93 | 1013.9 |
| 20260508223315 | 73 | 56 | 5.2 | 10.4 | 0.06 | 1.72 | 1.71 | 93 | 1013.8 |
| 20260508222815 | 73 | 46 | 4.3 | 12.2 | 0.05 | 1.71 | 1.70 | 92 | 1013.6 |
| 20260508222315 | 73 | 330 | 3.5 | 11.3 | 0.05 | 1.70 | 1.69 | 92 | 1013.7 |
| 20260508221816 | 73 | 30 | 7.8 | 13.9 | 0.04 | 1.69 | 1.68 | 92 | 1013.7 |
| 20260508221315 | 73 | 98 | 2.6 | 8.7 | 0.04 | 1.69 | 1.68 | 92 | 1013.5 |
| 20260508220815 | 73 | 79 | 4.3 | 11.3 | 0.04 | 1.69 | 1.68 | 92 | 1013.4 |
| 20260508220315 | 73 | 52 | 6.1 | 17.4 | 0.03 | 1.68 | 1.67 | 92 | 1013.4 |
| 20260508215815 | 73 | 29 | 6.1 | 14.8 | 0.03 | 1.68 | 1.67 | 92 | 1013.3 |
| 20260508215315 | 73 | 41 | 7.0 | 15.6 | 0.02 | 1.67 | 1.66 | 92 | 1013.3 |
| 20260508214815 | 73 | 66 | 1.7 | 7.8 | 0.01 | 1.66 | 1.65 | 93 | 1013.1 |
| 20260508214315 | 73 | 76 | 6.1 | 12.2 | 0.01 | 1.66 | 1.65 | 92 | 1013.2 |
| 20260508213815 | 73 | 37 | 6.1 | 12.2 | 0.01 | 1.66 | 1.65 | 92 | 1013.2 |
| 20260508213315 | 73 | 78 | 2.6 | 7.8 | 0.01 | 1.66 | 1.65 | 93 | 1013.2 |
| 20260508212815 | 73 | 61 | 6.1 | 13.0 | 0.02 | 1.66 | 1.65 | 92 | 1013.1 |
| 20260508212315 | 73 | 34 | 6.1 | 13.9 | 0.01 | 1.65 | 1.64 | 92 | 1013.0 |
| 20260508211815 | 73 | 39 | 2.6 | 10.4 | 0.02 | 1.65 | 1.64 | 93 | 1013.0 |
| 20260508211316 | 74 | 31 | 4.3 | 14.8 | 0.02 | 1.65 | 1.64 | 92 | 1012.9 |
| 20260508210815 | 74 | 37 | 5.2 | 10.4 | 0.03 | 1.65 | 1.64 | 92 | 1012.9 |
| 20260508210315 | 73 | 115 | 5.2 | 13.0 | 0.05 | 1.65 | 1.64 | 92 | 1012.8 |
| 20260508205315 | 73 | 67 | 6.1 | 10.4 | 0.09 | 1.65 | 1.64 | 93 | 1012.6 |
| 20260508204815 | 74 | 35 | 6.1 | 13.9 | 0.10 | 1.65 | 1.64 | 92 | 1012.6 |
| 20260508204316 | 73 | 22 | 4.3 | 13.9 | 0.12 | 1.65 | 1.64 | 93 | 1012.7 |
| 20260508203815 | 73 | 31 | 6.1 | 13.0 | 0.14 | 1.65 | 1.64 | 93 | 1012.6 |
| 20260508203315 | 73 | 69 | 4.3 | 13.9 | 0.17 | 1.65 | 1.64 | 93 | 1012.5 |
| 20260508202315 | 74 | 30 | 1.7 | 10.4 | 0.23 | 1.64 | 1.63 | 94 | 1012.4 |
| 20260508201816 | 74 | 32 | 0.9 | 10.4 | 0.26 | 1.63 | 1.62 | 93 | 1012.4 |
| 20260508200815 | 74 | 53 | 7.0 | 13.9 | 0.33 | 1.62 | 1.61 | 93 | 1012.4 |
| 20260508200315 | 74 | 60 | 6.1 | 12.2 | 0.34 | 1.60 | 1.59 | 93 | 1012.4 |
| 20260508195815 | 74 | 57 | 3.5 | 14.8 | 0.35 | 1.58 | 1.57 | 93 | 1012.4 |
| 20260508195315 | 74 | 44 | 4.3 | 10.4 | 0.38 | 1.56 | 1.55 | 93 | 1012.7 |
| 20260508194816 | 74 | 38 | 5.2 | 12.2 | 0.45 | 1.55 | 1.54 | 93 | 1012.6 |
| 20260508193815 | 74 | 344 | 4.3 | 8.7 | 0.53 | 1.51 | 1.50 | 93 | 1012.6 |
| 20260508193315 | 74 | 95 | 2.6 | 10.4 | 0.56 | 1.48 | 1.47 | 94 | 1012.6 |
| 20260508192816 | 74 | 198 | 2.6 | 10.4 | 0.58 | 1.45 | 1.44 | 94 | 1012.5 |
| 20260508192315 | 74 | 178 | 0.9 | 4.3 | 0.57 | 1.41 | 1.40 | 94 | 1012.6 |
| 20260508191815 | 74 | 36 | 1.7 | 4.3 | 0.57 | 1.37 | 1.36 | 94 | 1012.6 |
| 20260508191315 | 74 | 342 | 0.9 | 5.2 | 0.61 | 1.31 | 1.30 | 94 | 1012.6 |
| 20260508190315 | 75 | 224 | 1.7 | 5.2 | 0.69 | 1.26 | 1.25 | 94 | 1012.7 |
| 20260508185815 | 75 | 103 | 0.9 | 1.7 | 0.70 | 1.23 | 1.22 | 94 | 1012.7 |
| 20260508185315 | 75 | 38 | 0.0 | 7.0 | 0.74 | 1.18 | 1.17 | 94 | 1012.7 |
| 20260508184815 | 75 | 15 | 1.7 | 7.0 | 0.72 | 1.10 | 1.09 | 94 | 1012.9 |
| 20260508183815 | 75 | 320 | 0.9 | 8.7 | 0.73 | 0.98 | 0.97 | 94 | 1012.7 |
| 20260508183315 | 75 | 311 | 0.9 | 4.3 | 0.76 | 0.92 | 0.91 | 94 | 1012.8 |
| 20260508182816 | 75 | 308 | 0.0 | 2.6 | 0.74 | 0.87 | 0.86 | 95 | 1012.7 |
| 20260508182315 | 75 | 251 | 1.7 | 7.0 | 0.71 | 0.84 | 0.83 | 95 | 1012.7 |
| 20260508181315 | 75 | 223 | 0.9 | 2.6 | 0.60 | 0.70 | 0.69 | 94 | 1012.8 |
| 20260508180315 | 76 | 230 | 0.9 | 2.6 | 0.50 | 0.57 | 0.56 | 93 | 1012.8 |
| 20260508175815 | 76 | 274 | 0.9 | 5.2 | 0.48 | 0.53 | 0.52 | 93 | 1012.8 |
| 20260508175315 | 75 | 46 | 2.6 | 7.0 | 0.40 | 0.44 | 0.43 | 93 | 1012.9 |
| 20260508174816 | 75 | 53 | 1.7 | 11.3 | 0.36 | 0.38 | 0.37 | 94 | 1012.8 |
| 20260508174315 | 75 | 326 | 3.5 | 8.7 | 0.32 | 0.33 | 0.32 | 93 | 1012.7 |
| 20260508173815 | 76 | 134 | 0.9 | 5.2 | 0.24 | 0.25 | 0.24 | 93 | 1012.9 |
| 20260508173315 | 76 | 129 | 0.9 | 1.7 | 0.15 | 0.16 | 0.15 | 92 | 1012.9 |
| 20260508172816 | 76 | 277 | 0.0 | 1.7 | 0.12 | 0.13 | 0.12 | 92 | 1012.9 |
| 20260508172314 | 76 | 332 | 0.9 | 2.6 | 0.12 | 0.13 | 0.12 | 92 | 1012.9 |
| 20260508171814 | 76 | 32 | 0.0 | 4.3 | 0.10 | 0.11 | 0.10 | 92 | 1012.8 |
| 20260508171316 | 77 | 338 | 1.7 | 5.2 | 0.09 | 0.10 | 0.09 | 91 | 1012.9 |
| 20260508170815 | 77 | 37 | 1.7 | 7.0 | 0.07 | 0.08 | 0.07 | 91 | 1012.9 |
| 20260508170314 | 77 | 81 | 1.7 | 5.2 | 0.06 | 0.07 | 0.06 | 91 | 1012.7 |
| 20260508165814 | 78 | 38 | 0.9 | 5.2 | 0.03 | 0.05 | 0.04 | 90 | 1012.7 |
| 20260508164815 | 78 | 102 | 0.9 | 2.6 | 0.01 | 0.02 | 0.01 | 90 | 1012.9 |
| 20260508164314 | 79 | 142 | 0.0 | 1.7 | 0.00 | 0.01 | 0.00 | 90 | 1012.9 |
| 20260508163314 | 79 | 292 | 0.0 | 0.9 | 0.00 | 0.01 | 0.00 | 89 | 1012.9 |
| 20260508162315 | 79 | 322 | 0.0 | 1.7 | 0.00 | 0.01 | 0.00 | 89 | 1013.0 |
| 20260508161815 | 79 | 318 | 0.0 | 1.7 | 0.00 | 0.01 | 0.00 | 89 | 1013.0 |
| 20260508160815 | 79 | 199 | 0.9 | 4.3 | 0.00 | 0.01 | 0.00 | 88 | 1013.1 |
| 20260508160315 | 79 | 341 | 0.9 | 2.6 | 0.00 | 0.01 | 0.00 | 89 | 1013.2 |
| 20260508155814 | 79 | 40 | 1.7 | 5.2 | 0.01 | 0.01 | 0.01 | 89 | 1013.2 |
| 20260508155314 | 79 | 36 | 1.7 | 4.3 | 0.01 | 0.01 | 0.01 | 90 | 1013.2 |
| 20260508154816 | 78 | 344 | 0.0 | 2.6 | 0.00 | 0.00 | 0.00 | 91 | 1013.2 |
| 20260508153814 | 78 | 251 | 0.0 | 0.9 | 0.00 | 0.00 | 0.00 | 92 | 1013.3 |
| 20260508152815 | 78 | 336 | 0.9 | 2.6 | 0.00 | 0.00 | 0.00 | 92 | 1013.3 |
| 20260508152315 | 78 | 278 | 0.0 | 0.9 | 0.00 | 0.00 | 0.00 | 93 | 1013.3 |
| 20260508151815 | 78 | 262 | 0.0 | 0.9 | 0.00 | 0.00 | 0.00 | 93 | 1013.2 |
| 20260508150814 | 79 | 262 | 0.0 | 1.7 | 0.00 | 0.00 | 0.00 | 91 | 1013.3 |
| 20260508150315 | 79 | 235 | 0.0 | 0.9 | 0.00 | 0.00 | 0.00 | 91 | 1013.4 |
| 20260508145814 | 79 | 233 | 0.0 | 0.0 | 0.00 | 0.00 | 0.00 | 91 | 1013.4 |
| 20260508144815 | 80 | 233 | 0.0 | 0.0 | 0.00 | 0.00 | 0.00 | 90 | 1013.5 |
| 20260508144314 | 80 | 222 | 0.0 | 0.0 | 0.00 | 0.00 | 0.00 | 90 | 1013.5 |
| 20260508143814 | 80 | 222 | 0.0 | 0.0 | 0.00 | 0.00 | 0.00 | 89 | 1013.5 |
| 20260508143314 | 79 | 221 | 0.9 | 1.7 | 0.00 | 0.00 | 0.00 | 89 | 1013.6 |
| 20260508142814 | 79 | 298 | 0.0 | 0.0 | 0.00 | 0.00 | 0.00 | 90 | 1013.6 |
| 20260508142314 | 79 | 298 | 0.0 | 0.0 | 0.00 | 0.00 | 0.00 | 90 | 1013.5 |
| 20260508141815 | 79 | 300 | 0.0 | 0.0 | 0.00 | 0.00 | 0.00 | 90 | 1013.5 |
| 20260508141314 | 79 | 301 | 0.0 | 0.0 | 0.00 | 0.00 | 0.00 | 90 | 1013.5 |
| 20260508140814 | 79 | 304 | 0.0 | 0.9 | 0.00 | 0.00 | 0.00 | 90 | 1013.5 |
| 20260508135814 | 79 | 244 | 0.0 | 1.7 | 0.00 | 0.00 | 0.00 | 90 | 1013.3 |
| 20260508135314 | 79 | 222 | 0.0 | 0.0 | 0.00 | 0.00 | 0.00 | 89 | 1013.2 |
| 20260508134814 | 80 | 222 | 0.0 | 0.0 | 0.00 | 0.00 | 0.00 | 89 | 1013.3 |
| 20260508134314 | 80 | 222 | 0.0 | 0.0 | 0.00 | 0.00 | 0.00 | 89 | 1013.3 |
| 20260508132814 | 80 | 222 | 0.0 | 0.9 | 0.00 | 0.00 | 0.00 | 88 | 1013.0 |
| 20260508132314 | 80 | 221 | 0.0 | 1.7 | 0.00 | 0.00 | 0.00 | 87 | 1013.0 |
| 20260508131815 | 80 | 180 | 0.0 | 0.0 | 0.00 | 0.00 | 0.00 | 87 | 1012.9 |
| 20260508130814 | 80 | 180 | 0.0 | 1.7 | 0.00 | 0.00 | 0.00 | 86 | 1012.9 |
| 20260508130314 | 80 | 179 | 0.0 | 0.9 | 0.00 | 0.00 | 0.00 | 86 | 1012.9 |
| 20260508125814 | 80 | 179 | 0.9 | 1.7 | 0.00 | 0.00 | 0.00 | 87 | 1012.9 |
| 20260508125314 | 80 | 205 | 0.0 | 0.9 | 0.00 | 0.00 | 0.00 | 88 | 1012.8 |
| 20260508124814 | 80 | 218 | 0.0 | 0.9 | 0.00 | 0.00 | 0.00 | 88 | 1012.7 |
| 20260508124315 | 80 | 307 | 0.0 | 1.7 | 0.00 | 0.00 | 0.00 | 88 | 1012.6 |
| 20260508123815 | 80 | 281 | 0.0 | 1.7 | 0.00 | 0.00 | 0.00 | 88 | 1012.5 |
| 20260508123315 | 80 | 281 | 0.0 | 1.7 | 0.00 | 0.00 | 0.00 | 88 | 1012.4 |
| 20260508122814 | 80 | 336 | 0.9 | 1.7 | 0.00 | 0.00 | 0.00 | 88 | 1012.3 |
| 20260508122314 | 80 | 323 | 0.0 | 1.7 | 0.00 | 0.00 | 0.00 | 88 | 1012.3 |
| 20260508121814 | 80 | 323 | 0.0 | 1.7 | 0.00 | 0.00 | 0.00 | 88 | 1012.3 |
| 20260508121316 | 80 | 341 | 0.0 | 2.6 | 0.00 | 0.00 | 0.00 | 88 | 1012.3 |
| 20260508120815 | 80 | 303 | 0.9 | 1.7 | 0.00 | 0.00 | 0.00 | 88 | 1012.1 |
| 20260508120315 | 80 | 237 | 0.0 | 0.0 | 0.00 | 0.00 | 0.00 | 87 | 1011.9 |
| 20260508115814 | 80 | 237 | 0.0 | 0.0 | 0.00 | 0.00 | 0.00 | 87 | 1011.7 |
| 20260508115315 | 80 | 237 | 0.0 | 0.0 | 0.00 | 0.00 | 0.00 | 87 | 1011.8 |
| 20260508114814 | 81 | 224 | 0.0 | 0.0 | 0.00 | 0.00 | 0.00 | 87 | 1011.7 |
| 20260508114316 | 81 | 224 | 0.0 | 0.0 | 0.00 | 0.00 | 0.00 | 86 | 1011.7 |
| 20260508113815 | 81 | 224 | 0.0 | 0.0 | 0.00 | 0.00 | 0.00 | 87 | 1011.7 |
| 20260508113315 | 81 | 224 | 0.0 | 0.9 | 0.00 | 0.00 | 0.00 | 86 | 1011.7 |
| 20260508112814 | 81 | 220 | 0.0 | 1.7 | 0.00 | 0.00 | 0.00 | 86 | 1011.7 |
| 20260508112314 | 81 | 222 | 0.0 | 0.9 | 0.00 | 0.00 | 0.00 | 86 | 1011.6 |
| 20260508111814 | 82 | 218 | 0.0 | 1.7 | 0.00 | 0.00 | 0.00 | 85 | 1011.5 |
| 20260508111314 | 82 | 204 | 0.0 | 0.0 | 0.00 | 0.00 | 0.00 | 85 | 1011.5 |
| 20260508110814 | 81 | 194 | 0.0 | 0.9 | 0.00 | 0.00 | 0.00 | 86 | 1011.4 |
| 20260508110314 | 81 | 194 | 0.0 | 0.9 | 0.00 | 0.00 | 0.00 | 86 | 1011.3 |
| 20260508105815 | 83 | 194 | 0.0 | 0.0 | 0.00 | 0.00 | 0.00 | 82 | 1010.4 |
| 20260508094317 | 83 | 217 | 0.0 | 0.0 | 0.00 | 0.00 | 0.00 | 82 | 1010.3 |
| 20260508093816 | 83 | 217 | 0.0 | 0.0 | 0.00 | 0.00 | 0.00 | 83 | 1010.4 |
| 20260508093317 | 83 | 217 | 0.0 | 0.9 | 0.00 | 0.00 | 0.00 | 82 | 1010.4 |
| 20260508092816 | 83 | 217 | 0.0 | 0.0 | 0.00 | 0.00 | 0.00 | 82 | 1010.2 |
| 20260508092316 | 84 | 217 | 0.0 | 0.9 | 0.00 | 0.00 | 0.00 | 82 | 1010.2 |
| 20260508091816 | 84 | 217 | 0.0 | 0.9 | 0.00 | 0.00 | 0.00 | 83 | 1010.3 |
| 20260508091316 | 83 | 217 | 0.0 | 0.9 | 0.00 | 0.00 | 0.00 | 82 | 1010.3 |
| 20260508090316 | 83 | 239 | 0.0 | 0.0 | 0.00 | 0.00 | 0.00 | 81 | 1010.3 |
| 20260508085816 | 83 | 239 | 0.0 | 0.0 | 0.00 | 0.00 | 0.00 | 82 | 1010.2 |
| 20260508085315 | 83 | 239 | 0.0 | 0.0 | 0.00 | 0.00 | 0.00 | 83 | 1010.3 |
| 20260508084315 | 83 | 228 | 0.0 | 0.9 | 0.00 | 0.00 | 0.00 | 84 | 1010.2 |
| 20260508083816 | 82 | 186 | 0.0 | 0.0 | 0.00 | 0.00 | 0.00 | 85 | 1010.2 |
| 20260508082816 | 82 | 183 | 0.0 | 0.0 | 0.00 | 0.00 | 0.00 | 85 | 1010.2 |
| 20260508082316 | 82 | 183 | 0.0 | 0.0 | 0.00 | 0.00 | 0.00 | 85 | 1010.3 |
| 20260508080816 | 82 | 118 | 0.0 | 0.0 | 0.00 | 0.00 | 0.00 | 86 | 1010.4 |
| 20260508080317 | 81 | 117 | 0.0 | 0.0 | 0.00 | 0.00 | 0.00 | 87 | 1010.4 |
| 20260508075816 | 81 | 117 | 0.0 | 0.0 | 0.00 | 0.00 | 0.00 | 87 | 1010.5 |
| 20260508075317 | 81 | 116 | 0.0 | 0.0 | 0.00 | 0.00 | 0.00 | 87 | 1010.5 |
| 20260508074815 | 81 | 115 | 0.0 | 0.0 | 0.00 | 0.00 | 0.00 | 87 | 1010.6 |
| 20260508074316 | 81 | 114 | 0.0 | 0.0 | 0.00 | 0.00 | 0.00 | 88 | 1010.6 |
| 20260508073816 | 81 | 111 | 0.0 | 1.7 | 0.00 | 0.00 | 0.00 | 88 | 1010.7 |
| 20260508073317 | 81 | 177 | 0.0 | 1.7 | 0.00 | 0.00 | 0.00 | 88 | 1010.6 |
| 20260508072815 | 81 | 226 | 0.0 | 0.9 | 0.00 | 0.00 | 0.00 | 88 | 1010.6 |
| 20260508071816 | 82 | 215 | 0.9 | 2.6 | 0.00 | 0.00 | 0.00 | 87 | 1010.6 |
| 20260508071315 | 82 | 208 | 0.9 | 2.6 | 0.00 | 0.00 | 0.00 | 86 | 1010.6 |
| 20260508070817 | 82 | 218 | 1.7 | 4.3 | 0.00 | 0.00 | 0.00 | 85 | 1010.6 |
| 20260508070315 | 83 | 238 | 0.9 | 2.6 | 0.00 | 0.00 | 0.00 | 83 | 1010.7 |
| 20260508065816 | 83 | 225 | 1.7 | 4.3 | 0.00 | 0.00 | 0.00 | 81 | 1010.7 |
| 20260508065316 | 84 | 214 | 1.7 | 4.3 | 0.00 | 0.00 | 0.00 | 81 | 1010.7 |